Starlink 4049

operational
NORAD ID: 52840 Int'l Des: 2022-062 Owner: SPXS Country: US Constellation: starlink
LEOCIRCULAR

About Starlink 4049

Description loading...

Live Position

Loading 3D Globe...

Upcoming Passes

Altitude History

Altitude vs Time

uPlot chart will show altitude changes over time

Two-Line Element Set

1 52840U 22062L 26067.16403887 .00001920 00000-0 13869-3 0 9991
2 52840 53.2184 41.0856 0001356 92.6063 267.5085 15.08841210205559
Epoch: Mar 8, 2026 • Age: 16 hours

Current Status

Altitude 552.5 km
Velocity 7.58 km/s
Sub-Earth Point -37.41°S, 154.05°W
Launch Date Jun 17, 2022
Age 3.7 years
Type internet

Technical Details

Classification Payload
Mass 297.00 kg
Dry Mass 275.00 kg
Total Mass 297.00 kg
Length 0.20 m
Diameter 2.80 m
Span 9.00 m
Shape Box + pan
Manufacturer SPXS
Bus Type Starlink
Phase Status In Orbit
Owner/State SPXS/US

Large Constellations

Loading constellations...